Location: Gebenbach
(49.5378°N, 11.8735°E)
Time: 02:48:39
(UTC+00:00)

ATLAS 2AS CENTAUR R/B - Pass Details

Date: 29 October 2020
Orbit: 939 x 1273 km, 63.7° (Epoch: 23 November)

Event Time Altitude Azimuth Distance (km) Brightness Sun altitude
Rises 20:05:14 0° 315° (NW) 4,120 6.6 -40.1°
Reaches altitude 10° 20:08:21 10° 307° (NW) 3,105 5.8 -40.6°
Enters shadow 20:13:44 32° 262° (W) 1,849 4.1 -41.3°
